Vorticity
5 7 8 10 12 13 12 10 9 12 10 7 9 10 11 12 9 8 12 11 8 10 12 10 8 8 10 15 16 14 11 8 8 9 14 16 12 10 10 8 8 9 9 10 15 14 18 28 29 25 22 19 14 13 14 8 7 8 5 8 7 7 6 3 9 2 -5 2 -2 9 25 15 8 6 2 4 7 11 6 -1 0 3 5 4 4 1
4 5 7 9 11 14 13 12 12 11 9 9 11 12 12 11 10 10 11 9 6 7 9 9 9 9 8 8 9 12 10 8 8 6 12 18 17 13 10 10 11 11 10 8 9 6 4 13 22 25 23 22 17 13 16 10 3 7 8 9 9 8 5 3 10 0 -7 8 1 -3 17 19 12 12 10 4 1 6 6 6 5 2 5 5 2 2
7 3 5 13 15 12 13 16 15 10 8 10 13 15 15 15 12 11 11 9 9 8 6 4 7 10 11 10 8 10 11 6 4 3 5 10 14 13 8 4 3 4 8 7 9 9 4 4 9 17 22 23 23 18 20 16 4 6 9 8 8 7 4 3 10 4 -8 4 10 -1 4 16 15 11 17 12 -0 3 6 8 7 2 6 4 1 3
12 4 5 16 16 10 13 17 17 12 9 9 14 19 20 18 18 19 14 9 8 7 6 8 11 11 11 13 11 12 15 11 8 8 4 3 6 9 9 6 5 5 7 6 7 7 6 6 4 8 15 19 23 22 24 24 12 9 11 11 7 4 6 5 5 8 2 1 7 6 -0 7 14 6 12 21 9 0 4 10 7 -1 2 4 0 1
15 7 7 16 15 10 10 11 15 17 15 13 15 20 24 21 21 27 24 18 15 11 9 9 12 17 16 16 16 14 15 15 15 14 8 6 4 5 6 6 7 8 9 9 10 11 12 15 13 9 8 11 17 20 23 25 19 12 12 15 11 6 8 7 4 6 7 5 4 9 3 0 13 8 4 22 21 3 3 7 3 0 2 6 4 -1
12 10 10 17 14 9 6 6 9 14 14 13 13 14 20 21 18 21 24 26 27 20 14 11 18 29 22 15 14 11 10 11 16 18 15 16 15 12 11 10 8 7 7 6 5 8 11 15 19 16 10 6 10 18 19 21 23 17 13 14 12 10 10 8 7 6 8 10 5 7 8 -1 7 12 5 19 24 6 2 2 -3 -1 2 10 12 1
10 12 12 14 12 9 7 6 6 7 9 9 8 9 14 22 23 17 13 21 28 21 12 8 12 21 18 12 11 9 9 10 13 15 14 15 13 11 12 12 13 11 9 9 7 7 7 10 16 18 16 9 6 13 17 16 20 22 18 16 13 11 12 10 8 7 8 10 7 6 10 3 1 7 -0 7 23 12 1 1 -3 -4 0 10 14 1
8 14 14 10 10 8 4 6 7 4 6 9 8 6 9 22 33 26 13 13 21 18 13 10 5 6 8 8 7 8 11 11 10 12 13 13 11 10 10 11 14 15 14 14 13 10 6 7 11 16 19 14 8 8 12 13 15 21 22 18 18 14 12 13 9 8 9 8 8 6 9 9 4 6 1 2 22 24 15 12 3 -1 2 4 7 5
6 11 15 11 10 5 -5 -2 7 6 5 8 8 6 5 13 27 32 24 16 16 16 15 13 10 11 9 6 7 9 8 7 8 10 9 8 8 10 11 11 11 13 15 15 16 17 15 12 12 15 19 18 13 8 8 10 11 18 23 19 19 17 13 14 10 7 9 7 8 6 6 9 5 6 9 3 2 9 22 24 6 -1 4 0 4 12
4 8 13 15 14 9 -2 -7 -1 2 2 3 4 5 5 5 14 25 27 20 17 19 18 16 17 18 11 6 7 6 5 7 8 6 5 5 6 9 10 10 9 11 14 12 14 20 23 21 15 11 17 18 15 12 7 6 7 12 20 21 19 19 16 15 13 9 8 7 6 7 6 5 5 6 10 9 -4 -7 11 24 19 9 0 1 10 14
2 5 9 16 15 10 10 4 -6 -6 -0 2 4 6 8 7 7 12 20 21 19 21 21 22 27 23 14 12 11 6 4 5 2 -1 -1 1 3 6 7 6 6 8 9 7 8 15 21 26 23 15 17 14 10 14 11 4 5 8 14 19 17 19 21 17 16 11 9 9 5 6 8 3 5 6 6 11 6 -1 -1 5 24 24 -2 -1 14 6
2 6 5 13 16 8 12 12 -2 -8 -4 4 7 8 12 15 9 5 9 13 14 17 17 18 22 21 19 21 19 16 15 14 12 9 8 6 3 5 6 7 8 6 2 -0 3 11 18 25 29 27 25 16 7 13 16 6 4 6 10 17 13 15 22 21 19 15 9 12 7 3 8 6 4 5 6 9 6 8 3 -11 14 45 26 5 4 -5
2 4 3 10 17 11 10 13 5 -4 -4 5 10 7 10 19 16 4 -0 5 7 9 11 11 11 11 15 18 16 15 17 16 16 15 16 18 15 13 11 9 13 13 9 5 2 5 12 21 32 35 31 22 10 10 15 9 5 6 7 14 13 11 19 22 23 20 12 11 9 3 6 8 6 5 6 8 4 8 11 -4 2 38 44 16 -1 0
1 2 2 8 14 12 11 11 6 1 -1 4 8 7 8 16 19 9 1 4 7 7 10 10 9 7 8 10 11 13 16 15 13 12 11 13 14 16 15 10 8 10 12 12 6 1 4 18 35 40 33 25 16 12 13 6 2 6 7 10 13 11 13 19 24 24 15 12 11 5 4 7 9 6 6 11 11 6 9 5 -7 1 21 20 8 7
2 2 3 6 8 10 13 12 6 3 3 1 3 7 8 12 17 11 5 8 10 12 13 8 8 8 8 9 9 12 16 19 21 21 18 14 10 11 14 14 14 12 10 10 9 5 4 12 27 39 36 26 16 15 17 8 -1 2 6 7 13 15 12 13 21 26 19 13 13 8 5 7 6 3 5 12 16 13 12 12 2 -5 3 17 18 9
4 3 2 3 7 10 13 12 5 1 4 2 1 6 7 10 14 7 3 7 8 14 15 9 9 12 11 9 10 15 19 24 28 25 24 26 23 18 14 14 19 22 18 12 11 10 7 8 16 28 30 21 14 13 15 13 4 -0 3 5 9 16 16 12 16 26 24 16 14 10 6 8 6 3 4 6 7 11 17 17 14 10 2 8 22 14
7 3 1 3 6 9 11 12 5 -4 1 2 1 6 5 7 15 10 3 3 4 13 15 10 11 13 10 6 7 11 12 20 28 19 15 22 26 30 29 19 14 18 20 16 12 11 9 8 10 18 22 16 12 12 10 12 13 5 0 2 3 9 17 15 12 21 27 20 14 11 8 7 5 3 6 9 8 6 10 12 14 14 7 9 23 21
6 3 3 3 4 6 7 15 9 -6 -3 -1 -5 4 4 2 11 12 7 5 4 10 12 10 12 8 4 5 6 7 7 14 26 23 15 14 16 27 37 31 17 11 15 18 16 14 13 10 7 11 18 15 13 16 13 11 15 10 3 1 -1 2 12 15 11 17 26 25 18 12 9 8 7 4 4 7 9 5 -1 3 10 10 4 2 11 22
4 4 4 2 4 2 3 17 13 -5 -0 4 -5 -1 3 0 8 11 10 9 5 7 6 5 10 5 -1 4 5 7 13 13 17 23 22 15 9 14 24 28 23 14 12 17 18 16 15 15 11 8 11 13 13 17 20 16 14 12 8 3 -1 -1 6 10 10 14 22 26 22 15 9 8 7 5 5 4 6 9 2 -1 8 12 10 5 3 21
7 4 4 2 2 -0 2 15 13 -3 2 8 -1 -2 1 -1 3 8 11 9 7 9 4 -1 6 4 -1 5 6 8 13 9 6 16 27 25 13 9 13 18 20 19 16 17 20 18 15 15 15 10 8 9 10 11 17 20 17 13 11 8 3 -1 1 6 6 9 19 25 23 17 10 9 7 4 5 4 3 10 9 1 1 5 11 12 3 13
16 7 5 4 2 2 6 10 7 -1 2 7 2 -0 4 2 0 5 10 9 8 9 4 0 4 3 1 6 8 7 7 7 4 7 25 36 23 9 11 12 12 14 13 15 19 21 19 17 17 16 11 7 8 9 12 16 18 17 15 12 9 2 1 5 5 4 13 23 24 20 11 8 9 5 4 5 2 6 12 8 0 -2 4 11 4 6
20 10 5 5 5 6 7 6 7 5 2 5 4 -1 3 5 -0 1 8 9 8 7 3 3 3 3 7 10 8 5 2 5 7 7 22 38 28 11 8 9 10 11 9 9 11 15 18 18 18 19 17 13 9 7 8 11 13 17 18 16 15 10 3 3 5 3 7 17 24 23 15 10 11 8 4 6 4 3 8 10 5 -1 2 10 7 2
22 13 6 6 5 3 1 1 5 5 0 2 3 -3 1 6 0 0 8 9 7 6 3 4 4 4 8 8 4 3 2 6 11 13 23 33 26 13 5 2 4 10 14 14 12 12 15 16 15 16 17 17 15 11 7 7 8 11 18 19 18 16 9 4 5 4 4 12 20 23 19 14 13 11 6 4 4 4 6 10 9 4 1 7 10 2
25 19 9 6 4 2 3 3 4 5 4 4 3 -2 1 7 2 0 7 9 8 8 4 2 4 6 7 4 3 4 6 9 14 18 25 30 22 10 4 2 1 4 10 14 17 15 15 17 16 15 17 16 16 16 11 7 6 5 12 18 18 19 14 7 7 4 1 6 16 22 19 15 14 13 9 5 4 4 6 7 9 7 2 3 7 4
23 22 13 9 7 5 7 7 6 6 4 2 2 0 2 4 2 2 7 8 9 9 5 0 2 7 6 2 5 11 9 9 18 23 25 26 20 11 9 9 6 7 7 10 17 15 13 20 17 20 33 26 14 18 15 9 11 6 7 15 20 24 19 10 8 6 2 1 9 20 20 16 17 14 9 9 5 4 6 7 8 8 5 4 6 8
17 20 17 11 10 10 8 6 4 3 4 5 3 2 2 2 2 3 5 6 9 9 5 0 1 7 8 4 7 11 6 7 20 28 26 23 18 11 11 10 9 11 10 11 19 14 10 17 12 21 47 35 10 19 19 9 13 11 4 7 11 19 26 22 12 4 4 1 1 15 21 16 19 16 10 9 7 6 5 5 7 6 4 4 3 6
14 17 19 14 10 11 9 7 4 2 6 10 6 2 1 1 2 4 4 4 8 12 8 2 1 5 6 5 6 5 2 4 14 25 29 22 10 4 6 8 8 15 20 21 30 32 26 26 15 17 45 36 8 19 25 10 13 15 7 5 3 6 19 30 21 6 5 5 -2 7 17 17 21 19 12 10 9 7 6 5 8 6 5 6 2 2
17 14 18 18 14 11 9 9 7 6 10 7 1 0 1 0 0 3 5 3 4 10 10 4 2 4 5 5 6 6 3 4 11 22 28 20 7 2 4 9 15 26 35 29 30 38 40 42 33 20 31 32 12 18 28 14 11 16 13 10 8 3 6 20 27 14 4 4 2 5 10 14 21 20 11 11 10 8 7 5 6 5 7 13 9 4
24 16 14 15 16 15 13 8 -1 -0 8 6 -1 0 2 1 0 2 5 3 3 6 7 5 3 3 5 5 7 8 3 4 14 24 26 18 6 2 7 18 24 28 32 25 16 23 26 32 42 33 23 22 12 15 28 23 11 13 17 12 10 11 7 11 27 29 15 3 1 5 8 11 20 21 12 9 10 9 8 6 5 4 4 10 12 6
31 23 15 11 12 15 17 12 -2 -5 2 2 0 3 4 3 2 2 4 4 5 5 4 5 4 3 4 3 7 8 1 8 22 23 20 13 5 9 16 20 24 23 27 28 18 17 16 15 34 42 27 21 19 12 22 30 17 8 15 18 14 15 11 4 13 27 27 14 2 3 7 9 18 22 14 10 11 8 7 5 5 5 2 4 12 12
33 28 19 11 9 12 16 17 11 8 8 5 6 8 6 6 5 3 5 6 7 6 3 4 5 4 6 5 7 6 1 11 24 19 13 6 4 16 19 17 33 36 29 34 32 24 19 14 28 43 30 25 32 21 18 30 22 8 14 21 15 11 12 11 9 16 25 25 13 7 6 7 15 20 14 12 14 10 8 7 4 5 4 2 6 12
28 27 21 12 8 8 12 17 20 21 16 10 8 3 -0 7 9 5 7 7 4 4 3 4 5 5 7 7 6 5 3 12 24 19 12 8 7 16 18 24 40 25 4 21 34 25 19 13 24 44 34 20 26 26 24 29 21 12 18 22 15 9 9 13 15 16 23 25 18 13 10 7 13 18 14 12 13 10 7 6 6 5 4 1 2 7
22 24 22 15 7 7 13 19 20 20 16 11 8 5 5 15 12 4 6 6 2 4 4 4 5 5 6 6 5 6 6 13 28 25 11 10 14 15 18 30 31 7 -2 21 27 21 22 12 16 43 40 16 16 25 28 28 20 17 23 22 16 13 9 6 7 14 24 26 20 16 13 10 12 15 14 14 15 12 7 5 5 5 4 4 3 4
17 20 23 20 11 7 12 17 17 17 18 16 14 12 13 15 9 4 7 5 1 5 6 4 5 5 6 6 4 5 6 15 33 29 9 10 18 15 17 27 24 10 11 20 19 26 38 24 20 43 39 15 17 27 24 21 19 18 20 16 13 14 11 6 5 10 21 27 23 20 16 11 10 12 12 14 18 14 9 7 6 3 3 5 5 4
13 14 21 24 19 15 14 14 15 15 16 16 16 16 15 12 7 4 5 2 -0 5 10 7 4 5 7 7 4 3 9 23 32 21 8 13 17 15 17 18 16 15 15 16 17 29 41 36 34 43 30 10 18 29 22 17 17 14 12 12 13 15 13 13 14 14 18 23 23 23 22 16 10 10 10 12 16 14 9 7 8 6 4 4 5 6
10 8 13 18 21 24 22 19 17 14 12 13 13 15 14 10 9 7 5 6 6 8 12 9 5 6 7 6 5 4 13 31 31 11 7 19 18 15 17 13 11 17 20 18 15 15 28 43 47 40 19 7 20 29 19 15 14 10 11 13 13 12 11 15 21 21 20 22 23 24 25 19 13 12 12 11 11 11 8 5 5 5 5 5 6 6
7 6 9 11 14 19 18 17 18 16 15 15 13 15 15 12 13 16 14 13 10 8 10 9 7 8 7 5 6 5 11 34 40 14 2 16 20 13 15 15 12 16 19 15 10 13 28 42 42 29 12 11 25 26 16 13 12 10 15 19 17 17 15 12 16 22 23 21 25 31 27 18 14 13 15 16 15 12 9 5 6 7 5 5 7 7
5 5 8 9 9 11 11 11 14 14 13 14 14 16 19 18 19 22 20 17 13 9 9 9 7 8 8 5 6 6 6 23 37 19 -1 10 22 15 13 16 14 19 24 13 5 15 28 29 26 19 15 22 28 21 13 13 11 10 12 9 9 19 26 22 14 14 15 15 26 36 27 15 14 16 16 16 17 18 12 3 5 12 9 6 6 4
7 6 7 8 9 10 9 10 12 12 11 12 12 11 13 14 15 20 23 20 16 13 12 12 9 8 9 5 4 6 5 8 21 20 8 11 20 15 12 13 12 20 28 19 7 9 13 15 17 17 22 30 27 17 14 14 16 18 13 3 2 12 26 30 21 14 14 18 32 39 27 14 15 17 18 15 12 17 17 5 3 11 11 10 11 10
9 8 5 6 8 9 9 10 11 11 11 12 11 9 12 13 10 12 17 17 17 20 23 19 11 8 9 7 3 5 6 4 11 19 16 12 14 15 10 4 7 19 26 22 16 11 10 19 24 20 25 30 22 14 16 18 21 22 16 12 12 14 21 25 22 22 23 22 31 37 25 17 20 19 18 15 7 11 16 9 5 9 9 7 9 11
8 7 5 5 6 7 9 11 9 7 9 10 10 9 12 14 11 10 14 15 15 19 24 22 16 10 8 7 4 4 6 5 6 16 23 16 11 17 13 1 5 19 21 16 12 10 16 29 32 26 26 23 13 11 17 21 18 14 13 14 12 15 23 20 17 25 25 17 29 41 27 11 14 19 20 18 10 7 12 13 11 8 7 7 7 7
6 7 7 7 6 5 7 10 8 6 6 7 8 9 10 12 12 12 13 14 13 13 16 19 19 16 11 8 6 4 6 6 4 13 27 23 11 13 17 8 5 13 17 17 15 16 23 28 28 28 23 12 8 14 21 21 15 11 13 13 12 19 19 8 12 26 20 9 26 47 39 17 7 8 14 18 12 4 4 12 17 12 5 3 5 8
7 7 8 8 7 6 7 9 8 5 4 5 6 7 7 8 10 11 12 13 13 11 11 12 15 19 17 12 9 6 5 5 3 7 23 29 18 11 15 14 6 4 11 16 21 31 32 22 21 25 16 7 11 19 22 19 12 10 13 11 14 20 9 0 14 22 15 16 28 38 38 25 9 5 9 12 12 10 9 11 14 14 10 4 3 5
8 7 8 7 6 6 8 8 7 5 4 5 6 5 5 6 7 9 10 12 12 13 11 9 10 17 20 16 13 10 5 5 5 4 16 35 30 12 11 17 8 2 7 10 17 31 24 5 10 22 15 11 14 13 16 18 9 8 14 16 17 13 1 9 19 3 -4 16 28 32 40 31 12 8 10 8 7 6 9 13 11 10 12 9 6 7
8 7 8 7 5 6 8 8 8 8 7 6 6 5 5 5 6 7 8 9 12 13 14 12 10 12 18 19 17 13 7 4 7 3 8 32 38 17 10 20 14 4 6 7 11 22 17 9 22 24 11 13 18 9 10 18 13 6 7 16 25 10 -10 4 19 2 -2 13 12 17 38 39 23 9 2 10 22 17 11 18 15 7 7 10 10 11
9 8 9 8 6 7 8 7 7 9 8 7 7 6 5 6 6 7 8 8 10 12 13 14 13 11 14 18 19 18 12 5 7 5 3 23 40 24 9 17 20 10 6 7 9 14 19 26 26 8 -4 9 19 13 13 17 17 13 3 4 23 18 -8 -5 13 11 14 22 17 16 23 28 30 17 -7 -2 22 27 24 29 24 11 6 9 15 18
11 9 9 9 8 8 8 6 7 9 8 7 7 6 6 7 6 7 7 6 8 10 10 12 14 12 12 14 16 19 17 8 6 6 2 14 38 34 11 9 20 18 11 10 8 5 16 30 20 -3 -2 14 13 12 20 19 16 20 9 -5 10 20 3 -6 2 5 6 11 18 25 20 15 22 21 3 -2 9 14 21 28 28 25 20 13 14 21
12 9 10 11 9 7 7 6 6 8 8 8 8 7 7 8 7 7 8 6 6 8 9 9 12 13 13 13 13 17 20 15 8 7 3 6 27 39 23 7 13 21 19 13 7 -0 7 23 22 10 12 16 7 9 21 19 13 20 15 -2 3 17 11 -2 -2 8 12 8 8 17 22 19 18 14 8 7 9 9 14 18 16 19 24 21 15 13
11 9 10 11 9 8 8 7 6 7 8 8 8 8 8 9 9 7 7 7 6 7 8 8 10 11 12 13 13 14 18 18 13 10 7 2 12 33 36 18 7 14 21 20 16 9 6 9 13 14 12 9 6 11 19 18 15 16 11 2 1 9 13 10 5 6 11 12 9 9 14 21 24 19 9 4 0 -0 7 16 14 8 10 14 9 2
10 10 10 10 9 8 9 8 6 7 9 8 8 9 8 9 10 8 7 7 6 7 8 7 7 9 10 12 13 12 13 16 17 15 12 5 3 16 35 35 18 8 13 19 20 19 18 12 7 8 10 7 5 7 12 17 20 16 12 7 3 2 8 17 17 9 6 10 12 8 7 12 19 24 21 13 5 -1 -2 3 8 8 10 14 13 11
10 12 11 9 9 9 9 8 7 7 8 7 7 9 9 8 10 9 7 8 7 6 8 8 6 7 8 10 12 13 12 12 16 17 15 12 5 3 16 36 37 19 8 11 16 17 22 24 16 10 10 12 11 8 6 9 15 17 16 15 10 3 -1 6 15 15 11 10 11 7 5 6 7 14 21 21 19 16 9 3 3 5 5 8 12 16
Height
5717 5714 5713 5711 5710 5708 5707 5705 5704 5704 5703 5701 5700 5699 5698 5698 5697 5696 5696 5695 5693 5692 5694 5694 5694 5695 5696 5697 5698 5699 5700 5701 5702 5703 5704 5705 5706 5707 5708 5710 5712 5715 5717 5718 5718 5719 5721 5722 5725 5727 5730 5732 5734 5737 5739 5742 5750 5757 5760 5762 5763 5764 5767 5772 5775 5776 5780 5786 5791 5795 5796 5798 5801 5805 5808 5812 5815 5818 5819 5821 5824 5827 5830 5833 5836 5839
5714 5713 5712 5710 5709 5708 5706 5705 5704 5703 5701 5699 5698 5698 5697 5696 5695 5694 5693 5693 5691 5689 5690 5691 5691 5692 5694 5695 5696 5697 5697 5698 5698 5699 5700 5701 5701 5702 5703 5704 5706 5708 5709 5710 5711 5713 5715 5717 5719 5720 5722 5725 5727 5730 5733 5737 5744 5749 5753 5757 5757 5757 5761 5765 5768 5771 5775 5781 5785 5790 5793 5794 5796 5799 5801 5805 5810 5814 5816 5818 5821 5825 5827 5830 5834 5836
5715 5714 5713 5711 5710 5708 5707 5705 5704 5703 5701 5699 5698 5697 5695 5694 5693 5693 5691 5690 5689 5687 5687 5688 5688 5689 5691 5692 5693 5694 5694 5694 5695 5695 5696 5696 5697 5697 5698 5699 5700 5701 5702 5704 5705 5707 5708 5711 5714 5715 5717 5719 5721 5723 5726 5731 5736 5741 5747 5750 5750 5751 5754 5759 5762 5766 5770 5776 5780 5784 5788 5789 5791 5794 5796 5799 5803 5808 5811 5814 5818 5821 5824 5827 5831 5834
5717 5715 5713 5712 5710 5709 5707 5706 5704 5702 5700 5698 5697 5696 5694 5692 5691 5691 5689 5688 5687 5685 5685 5684 5684 5686 5688 5688 5689 5690 5690 5691 5691 5690 5690 5690 5691 5691 5692 5692 5693 5694 5696 5697 5699 5701 5702 5704 5707 5710 5712 5714 5715 5716 5719 5724 5729 5734 5739 5743 5745 5745 5749 5753 5756 5761 5765 5770 5775 5779 5783 5785 5787 5791 5794 5796 5799 5803 5807 5810 5813 5818 5822 5826 5829 5832
5717 5715 5713 5711 5710 5709 5707 5706 5704 5702 5700 5698 5696 5694 5693 5690 5688 5688 5687 5687 5685 5684 5682 5681 5681 5684 5685 5685 5685 5685 5686 5686 5685 5684 5685 5686 5686 5687 5687 5688 5689 5690 5690 5691 5693 5695 5696 5698 5701 5704 5707 5708 5709 5710 5713 5717 5721 5726 5732 5736 5739 5740 5743 5747 5750 5755 5759 5764 5770 5774 5777 5780 5784 5788 5790 5793 5797 5800 5804 5807 5810 5815 5820 5823 5827 5830
5716 5714 5713 5711 5710 5708 5707 5706 5704 5702 5700 5698 5695 5693 5691 5689 5687 5685 5685 5684 5684 5682 5679 5678 5680 5682 5682 5681 5681 5681 5680 5680 5680 5681 5682 5683 5683 5684 5685 5686 5686 5686 5686 5686 5687 5688 5690 5692 5694 5697 5700 5702 5703 5705 5708 5711 5714 5719 5723 5728 5732 5734 5738 5741 5744 5749 5754 5759 5764 5768 5772 5776 5781 5785 5787 5790 5794 5797 5802 5805 5808 5812 5817 5820 5824 5827
5715 5713 5712 5711 5709 5707 5706 5705 5704 5702 5700 5697 5695 5692 5690 5688 5685 5684 5683 5682 5681 5680 5677 5676 5678 5680 5679 5677 5677 5676 5677 5677 5678 5679 5680 5680 5681 5681 5681 5682 5682 5682 5682 5682 5683 5684 5685 5686 5688 5691 5694 5696 5698 5701 5703 5705 5707 5711 5716 5721 5725 5727 5732 5735 5738 5742 5749 5754 5759 5763 5767 5772 5776 5780 5784 5787 5790 5794 5799 5803 5806 5809 5813 5816 5820 5824
5715 5713 5711 5710 5708 5707 5706 5705 5703 5701 5699 5696 5694 5692 5691 5688 5684 5682 5681 5680 5679 5677 5676 5675 5676 5678 5677 5674 5674 5675 5676 5676 5676 5676 5677 5677 5677 5677 5677 5677 5678 5678 5678 5678 5679 5680 5680 5681 5682 5684 5687 5690 5693 5695 5698 5699 5701 5705 5709 5713 5717 5720 5724 5729 5732 5736 5743 5749 5753 5758 5762 5767 5771 5775 5779 5783 5786 5789 5794 5799 5802 5805 5808 5812 5816 5820
5715 5713 5711 5709 5707 5706 5705 5704 5702 5700 5698 5695 5693 5692 5690 5687 5684 5681 5679 5678 5677 5676 5675 5674 5674 5675 5675 5673 5673 5674 5674 5674 5674 5673 5673 5673 5673 5673 5673 5673 5673 5674 5674 5673 5674 5675 5675 5676 5676 5677 5680 5683 5686 5688 5691 5693 5695 5698 5702 5706 5709 5713 5717 5722 5726 5729 5736 5743 5748 5752 5757 5762 5766 5769 5774 5779 5783 5786 5790 5794 5798 5802 5804 5807 5812 5817
5714 5712 5710 5708 5706 5705 5705 5703 5701 5699 5697 5694 5692 5690 5688 5686 5684 5681 5678 5676 5675 5674 5674 5673 5673 5673 5672 5671 5672 5672 5672 5672 5671 5670 5669 5669 5668 5668 5668 5668 5668 5669 5669 5669 5669 5670 5670 5670 5670 5671 5673 5675 5678 5681 5684 5687 5688 5691 5694 5698 5702 5706 5710 5715 5719 5723 5730 5738 5742 5747 5752 5757 5761 5764 5769 5774 5779 5783 5788 5792 5795 5798 5801 5805 5810 5814
5712 5710 5709 5707 5705 5704 5703 5702 5700 5698 5696 5694 5692 5689 5687 5685 5684 5681 5677 5675 5674 5673 5673 5672 5672 5672 5670 5670 5670 5670 5670 5669 5668 5666 5665 5665 5664 5664 5664 5663 5663 5664 5664 5664 5665 5665 5665 5664 5664 5665 5667 5669 5671 5674 5677 5679 5681 5684 5688 5692 5695 5699 5703 5708 5712 5717 5724 5732 5737 5742 5747 5752 5756 5759 5763 5769 5775 5780 5785 5788 5791 5794 5797 5802 5807 5810
5710 5708 5707 5706 5704 5703 5701 5700 5699 5696 5694 5693 5692 5690 5688 5686 5684 5682 5678 5675 5673 5673 5672 5671 5671 5670 5669 5669 5668 5667 5666 5665 5663 5662 5661 5661 5660 5659 5659 5659 5659 5659 5659 5659 5660 5659 5659 5659 5658 5659 5661 5663 5665 5667 5670 5673 5676 5678 5682 5686 5690 5694 5697 5701 5706 5711 5718 5726 5732 5737 5742 5747 5752 5755 5759 5766 5772 5776 5781 5785 5788 5790 5793 5799 5804 5806
5708 5707 5706 5705 5703 5702 5700 5698 5697 5695 5694 5694 5692 5690 5689 5686 5683 5681 5679 5675 5672 5671 5670 5670 5669 5668 5667 5667 5665 5663 5662 5660 5658 5657 5656 5656 5655 5655 5654 5654 5654 5654 5654 5654 5654 5654 5654 5653 5653 5653 5655 5658 5660 5661 5663 5666 5669 5673 5677 5681 5685 5689 5692 5696 5700 5705 5712 5720 5727 5732 5737 5743 5748 5750 5754 5761 5767 5771 5777 5781 5784 5787 5790 5796 5800 5802
5705 5704 5703 5702 5701 5699 5698 5697 5695 5694 5693 5691 5689 5687 5686 5683 5680 5678 5676 5674 5672 5670 5669 5668 5667 5666 5665 5664 5662 5661 5659 5657 5654 5652 5651 5651 5650 5650 5650 5649 5649 5648 5648 5649 5649 5649 5649 5648 5647 5647 5649 5653 5656 5657 5658 5660 5664 5667 5671 5676 5680 5684 5688 5691 5694 5700 5706 5714 5721 5727 5732 5737 5742 5745 5748 5754 5760 5764 5769 5775 5780 5783 5787 5792 5797 5800
5702 5701 5700 5699 5698 5697 5697 5695 5694 5692 5690 5688 5686 5684 5683 5680 5677 5675 5674 5673 5672 5670 5668 5666 5665 5664 5663 5661 5660 5658 5656 5653 5651 5649 5647 5645 5644 5644 5645 5645 5645 5644 5643 5643 5644 5644 5644 5644 5643 5643 5645 5648 5651 5654 5655 5657 5660 5662 5666 5671 5676 5680 5684 5687 5690 5695 5701 5708 5715 5721 5727 5731 5736 5739 5744 5751 5756 5759 5763 5768 5773 5778 5782 5787 5792 5796
5701 5700 5699 5698 5697 5696 5695 5693 5691 5690 5688 5686 5684 5683 5681 5679 5677 5675 5673 5672 5671 5670 5668 5666 5664 5663 5661 5659 5657 5655 5653 5650 5647 5644 5642 5640 5639 5639 5639 5639 5639 5639 5638 5638 5638 5639 5639 5640 5640 5641 5642 5645 5647 5649 5651 5654 5656 5658 5661 5666 5671 5676 5679 5683 5686 5690 5696 5702 5709 5715 5721 5726 5730 5734 5740 5747 5753 5758 5762 5765 5769 5772 5777 5782 5786 5791
5699 5699 5698 5697 5696 5694 5692 5690 5689 5688 5687 5686 5684 5682 5680 5678 5676 5675 5672 5671 5670 5669 5667 5665 5663 5661 5659 5657 5655 5652 5650 5647 5644 5641 5638 5636 5634 5633 5633 5633 5633 5633 5633 5633 5633 5634 5634 5635 5636 5638 5639 5641 5643 5645 5647 5649 5652 5655 5658 5661 5666 5671 5674 5678 5682 5685 5691 5696 5702 5709 5715 5720 5725 5730 5736 5744 5750 5754 5758 5762 5766 5770 5773 5777 5781 5785
5696 5696 5696 5695 5693 5692 5690 5689 5687 5687 5686 5685 5684 5681 5678 5676 5675 5673 5671 5670 5669 5668 5666 5663 5659 5657 5656 5654 5652 5651 5648 5646 5643 5639 5636 5633 5630 5628 5628 5628 5628 5628 5628 5628 5628 5629 5629 5631 5632 5633 5635 5637 5639 5641 5643 5645 5647 5650 5654 5657 5662 5666 5670 5674 5678 5681 5685 5691 5697 5703 5709 5715 5721 5726 5732 5740 5745 5749 5753 5757 5763 5767 5770 5774 5778 5781
5695 5694 5693 5693 5692 5690 5689 5687 5686 5686 5684 5683 5682 5680 5677 5675 5674 5672 5670 5667 5666 5665 5664 5661 5656 5654 5652 5650 5648 5646 5643 5642 5640 5638 5634 5631 5628 5625 5624 5623 5623 5623 5624 5624 5624 5624 5624 5626 5627 5629 5630 5632 5633 5636 5638 5640 5643 5646 5649 5653 5657 5662 5666 5670 5673 5676 5680 5685 5691 5697 5703 5710 5716 5720 5727 5735 5740 5744 5748 5753 5759 5763 5767 5772 5775 5778
5692 5692 5691 5691 5690 5689 5687 5686 5685 5684 5683 5682 5680 5678 5676 5675 5673 5671 5669 5665 5663 5661 5660 5657 5654 5652 5649 5646 5643 5641 5638 5636 5634 5634 5631 5628 5625 5623 5621 5620 5620 5619 5619 5619 5619 5620 5619 5620 5622 5623 5625 5626 5628 5630 5632 5635 5638 5641 5645 5649 5653 5658 5663 5666 5669 5672 5676 5680 5686 5692 5698 5704 5710 5715 5723 5730 5735 5739 5744 5750 5755 5759 5764 5768 5770 5774
5690 5689 5689 5688 5688 5687 5686 5684 5683 5682 5681 5680 5679 5677 5676 5674 5671 5669 5667 5664 5661 5659 5655 5653 5652 5649 5646 5644 5641 5638 5635 5631 5629 5628 5627 5624 5622 5620 5619 5617 5616 5615 5614 5614 5614 5615 5615 5615 5616 5617 5619 5621 5622 5624 5627 5630 5633 5636 5640 5644 5649 5654 5658 5661 5665 5669 5673 5677 5682 5687 5693 5699 5705 5711 5718 5724 5729 5734 5739 5745 5751 5756 5760 5763 5766 5769
5687 5687 5687 5686 5685 5685 5684 5683 5682 5681 5680 5678 5677 5676 5675 5673 5670 5668 5666 5663 5660 5657 5654 5651 5649 5647 5644 5642 5639 5635 5632 5629 5625 5623 5622 5621 5618 5617 5616 5614 5613 5612 5610 5609 5609 5609 5609 5609 5609 5610 5612 5614 5616 5618 5620 5623 5627 5631 5635 5639 5644 5649 5653 5657 5662 5666 5670 5673 5677 5683 5688 5695 5701 5706 5712 5718 5723 5729 5735 5740 5746 5751 5755 5759 5762 5766
5685 5685 5684 5684 5683 5683 5682 5681 5680 5680 5678 5677 5675 5674 5672 5671 5669 5667 5665 5662 5659 5656 5653 5651 5649 5646 5643 5640 5636 5633 5631 5628 5624 5620 5618 5617 5615 5613 5612 5610 5609 5607 5606 5604 5603 5602 5602 5602 5602 5603 5605 5606 5609 5611 5614 5617 5621 5625 5629 5633 5637 5642 5648 5653 5658 5663 5666 5669 5673 5679 5684 5689 5695 5701 5706 5712 5718 5725 5731 5736 5741 5745 5750 5754 5758 5762
5684 5683 5682 5682 5682 5681 5681 5680 5679 5678 5677 5675 5673 5671 5670 5669 5667 5665 5663 5661 5658 5655 5652 5650 5648 5646 5642 5638 5635 5633 5631 5628 5623 5619 5615 5613 5611 5610 5608 5606 5604 5602 5600 5599 5597 5596 5595 5595 5595 5596 5597 5599 5601 5604 5607 5610 5615 5619 5623 5626 5630 5636 5643 5648 5653 5658 5662 5665 5669 5674 5679 5684 5690 5696 5702 5708 5714 5720 5726 5731 5736 5740 5745 5749 5754 5758
5682 5681 5681 5680 5680 5680 5679 5678 5678 5676 5675 5673 5670 5669 5668 5666 5665 5663 5661 5659 5655 5652 5649 5645 5644 5643 5640 5637 5635 5632 5630 5626 5622 5616 5612 5609 5608 5606 5604 5602 5599 5596 5594 5591 5590 5588 5587 5587 5587 5587 5588 5590 5593 5596 5599 5603 5608 5612 5616 5620 5625 5630 5637 5642 5647 5652 5657 5661 5664 5668 5673 5678 5684 5691 5698 5704 5710 5716 5721 5726 5731 5735 5740 5745 5750 5754
5681 5680 5679 5679 5678 5678 5678 5677 5676 5674 5673 5671 5669 5667 5666 5664 5662 5661 5659 5657 5654 5651 5647 5643 5641 5641 5638 5635 5633 5629 5626 5622 5618 5613 5609 5606 5603 5602 5599 5596 5594 5591 5587 5584 5581 5579 5579 5578 5578 5578 5579 5582 5585 5588 5591 5596 5601 5606 5610 5614 5620 5625 5630 5635 5640 5646 5651 5656 5660 5663 5668 5673 5679 5686 5693 5699 5705 5711 5717 5722 5727 5731 5736 5740 5745 5749
5679 5678 5677 5677 5676 5676 5675 5674 5673 5672 5671 5669 5667 5665 5663 5662 5660 5659 5657 5655 5653 5652 5648 5643 5638 5636 5634 5632 5628 5624 5620 5616 5613 5608 5605 5603 5600 5597 5595 5591 5588 5584 5580 5576 5573 5571 5570 5570 5571 5571 5572 5574 5578 5581 5584 5589 5594 5599 5604 5608 5614 5619 5624 5628 5634 5639 5645 5650 5654 5658 5663 5668 5674 5681 5687 5693 5699 5706 5712 5718 5722 5727 5730 5735 5740 5745
5677 5676 5675 5675 5674 5674 5673 5672 5671 5670 5669 5668 5666 5663 5662 5660 5658 5657 5655 5653 5651 5650 5648 5644 5638 5633 5630 5627 5623 5618 5614 5611 5609 5604 5600 5598 5596 5592 5589 5586 5582 5577 5572 5568 5566 5564 5563 5563 5564 5565 5566 5569 5573 5576 5578 5582 5587 5593 5598 5603 5608 5614 5618 5623 5629 5633 5638 5643 5649 5654 5658 5663 5668 5674 5681 5687 5693 5700 5706 5712 5717 5721 5725 5729 5733 5739
5675 5674 5673 5673 5672 5672 5672 5670 5669 5668 5667 5666 5665 5662 5660 5658 5656 5655 5654 5651 5648 5646 5644 5642 5638 5633 5628 5624 5621 5617 5612 5608 5605 5600 5596 5594 5591 5587 5584 5580 5575 5571 5567 5563 5561 5559 5558 5558 5558 5560 5561 5564 5567 5570 5573 5576 5582 5588 5593 5598 5603 5608 5613 5619 5624 5628 5633 5638 5644 5649 5654 5659 5663 5668 5674 5680 5687 5694 5701 5707 5712 5716 5720 5724 5727 5732
5674 5672 5672 5671 5670 5670 5670 5669 5667 5666 5666 5665 5663 5661 5658 5657 5654 5653 5652 5650 5647 5644 5641 5638 5636 5632 5627 5623 5620 5616 5611 5607 5602 5598 5594 5591 5588 5584 5579 5574 5569 5566 5562 5559 5557 5555 5554 5554 5554 5555 5557 5559 5562 5565 5568 5571 5577 5583 5589 5594 5599 5604 5609 5614 5618 5623 5628 5633 5639 5645 5650 5654 5658 5663 5668 5674 5681 5689 5696 5702 5707 5712 5717 5721 5724 5727
5673 5671 5670 5670 5668 5668 5667 5667 5665 5665 5664 5663 5661 5659 5657 5656 5653 5651 5650 5649 5646 5643 5640 5636 5634 5632 5629 5626 5621 5615 5610 5606 5601 5595 5592 5589 5585 5581 5576 5570 5565 5561 5558 5556 5554 5553 5551 5551 5550 5551 5553 5556 5558 5560 5564 5568 5573 5580 5586 5590 5595 5600 5604 5609 5613 5617 5622 5627 5633 5639 5644 5648 5653 5657 5663 5669 5676 5684 5691 5697 5702 5707 5712 5717 5720 5723
5671 5670 5669 5668 5667 5666 5666 5665 5664 5663 5662 5660 5659 5657 5655 5654 5652 5649 5647 5647 5644 5642 5639 5636 5633 5631 5628 5625 5621 5614 5608 5604 5598 5592 5588 5586 5583 5577 5572 5568 5563 5559 5556 5554 5552 5550 5548 5548 5548 5547 5549 5552 5555 5557 5561 5565 5571 5577 5583 5587 5591 5596 5600 5604 5608 5612 5616 5621 5626 5632 5638 5643 5647 5652 5658 5664 5671 5679 5686 5692 5697 5702 5706 5711 5716 5720
5671 5669 5668 5667 5666 5664 5664 5663 5662 5661 5660 5658 5657 5655 5653 5652 5651 5648 5645 5643 5642 5639 5636 5633 5630 5627 5623 5620 5617 5613 5607 5602 5596 5590 5585 5583 5580 5575 5570 5565 5561 5557 5555 5552 5549 5547 5546 5545 5545 5545 5547 5550 5553 5556 5560 5564 5570 5576 5581 5585 5588 5592 5596 5600 5604 5607 5611 5615 5620 5626 5632 5638 5643 5648 5653 5660 5667 5675 5681 5686 5692 5697 5701 5706 5713 5716
5672 5669 5668 5667 5665 5663 5662 5661 5660 5659 5658 5657 5655 5653 5651 5650 5650 5647 5643 5640 5638 5636 5633 5630 5627 5623 5620 5617 5614 5611 5606 5600 5593 5588 5584 5580 5576 5573 5569 5564 5560 5557 5554 5551 5548 5545 5543 5542 5542 5542 5545 5548 5552 5555 5559 5564 5569 5574 5579 5582 5586 5589 5593 5596 5600 5603 5607 5611 5616 5622 5627 5632 5638 5643 5649 5656 5664 5671 5677 5683 5689 5693 5696 5701 5707 5712
5673 5671 5668 5666 5664 5662 5660 5660 5659 5658 5657 5655 5654 5652 5650 5649 5647 5644 5640 5637 5635 5634 5632 5629 5626 5622 5620 5617 5614 5610 5606 5599 5592 5588 5585 5580 5576 5572 5568 5563 5559 5556 5554 5551 5548 5544 5541 5540 5540 5541 5544 5547 5551 5554 5559 5563 5568 5572 5576 5580 5583 5586 5590 5593 5596 5599 5603 5607 5612 5618 5624 5629 5634 5639 5645 5652 5659 5666 5672 5679 5684 5688 5692 5696 5702 5708
5674 5671 5669 5667 5664 5662 5659 5658 5657 5656 5655 5654 5652 5650 5648 5646 5644 5642 5639 5636 5635 5633 5631 5628 5625 5622 5619 5616 5613 5610 5605 5599 5592 5587 5584 5581 5576 5571 5566 5562 5558 5555 5553 5551 5548 5545 5542 5540 5540 5542 5544 5547 5550 5554 5558 5563 5567 5571 5574 5577 5581 5584 5587 5590 5593 5596 5600 5604 5608 5614 5620 5626 5631 5636 5642 5649 5655 5661 5667 5673 5678 5683 5688 5693 5698 5703
5674 5672 5669 5667 5664 5662 5660 5658 5656 5655 5654 5652 5650 5648 5646 5644 5643 5641 5639 5635 5633 5631 5629 5626 5624 5622 5618 5614 5611 5608 5604 5599 5593 5588 5585 5581 5576 5571 5566 5562 5559 5556 5554 5552 5549 5546 5544 5542 5542 5545 5547 5549 5551 5554 5558 5562 5566 5570 5573 5576 5580 5583 5585 5588 5590 5594 5597 5601 5605 5609 5614 5621 5627 5632 5639 5646 5652 5657 5663 5669 5674 5680 5685 5690 5694 5697
5674 5671 5669 5667 5664 5662 5660 5658 5657 5655 5653 5651 5649 5647 5645 5643 5641 5639 5636 5633 5630 5628 5626 5624 5622 5620 5617 5612 5608 5605 5601 5598 5593 5588 5584 5580 5575 5571 5567 5564 5561 5558 5555 5553 5551 5548 5547 5546 5546 5548 5549 5550 5551 5554 5558 5562 5566 5569 5573 5576 5579 5582 5584 5586 5589 5593 5596 5599 5602 5606 5611 5617 5623 5629 5636 5643 5648 5654 5660 5665 5671 5677 5682 5687 5691 5694
5673 5670 5668 5666 5664 5662 5660 5659 5657 5655 5653 5651 5649 5647 5644 5642 5640 5637 5633 5630 5628 5626 5624 5622 5620 5617 5614 5609 5605 5601 5597 5594 5590 5585 5581 5577 5573 5570 5568 5565 5562 5559 5557 5555 5553 5550 5549 5548 5548 5549 5549 5550 5551 5553 5558 5562 5566 5569 5573 5576 5578 5580 5583 5586 5589 5592 5595 5597 5601 5604 5609 5615 5620 5626 5633 5639 5643 5649 5655 5661 5667 5672 5676 5680 5685 5689
5673 5671 5669 5667 5665 5663 5661 5659 5657 5655 5654 5652 5649 5646 5644 5641 5638 5636 5633 5630 5628 5625 5623 5621 5618 5615 5612 5607 5603 5599 5594 5590 5585 5582 5579 5575 5572 5570 5568 5566 5563 5561 5558 5556 5554 5553 5551 5550 5549 5549 5549 5550 5552 5555 5559 5563 5567 5570 5573 5575 5578 5580 5583 5586 5588 5591 5594 5597 5601 5605 5609 5614 5619 5625 5631 5636 5641 5646 5652 5658 5663 5667 5670 5675 5679 5683
5673 5671 5669 5667 5665 5663 5661 5659 5657 5656 5653 5651 5648 5646 5644 5641 5638 5635 5634 5632 5629 5625 5622 5619 5616 5613 5610 5606 5603 5599 5595 5590 5586 5582 5579 5576 5573 5571 5569 5567 5564 5562 5560 5558 5556 5555 5553 5551 5550 5550 5550 5552 5555 5558 5562 5565 5568 5571 5573 5575 5577 5580 5583 5585 5588 5591 5594 5598 5602 5606 5610 5613 5618 5622 5628 5633 5639 5644 5649 5654 5657 5662 5666 5671 5675 5680
5672 5671 5669 5667 5665 5663 5661 5660 5658 5656 5653 5651 5649 5646 5643 5640 5638 5635 5633 5630 5627 5624 5620 5617 5614 5611 5608 5605 5602 5599 5596 5592 5588 5584 5580 5577 5575 5572 5570 5568 5566 5564 5562 5560 5558 5557 5554 5552 5552 5554 5555 5556 5558 5561 5564 5566 5569 5571 5573 5575 5576 5579 5582 5586 5588 5591 5594 5599 5603 5606 5609 5612 5617 5622 5627 5632 5637 5641 5646 5650 5654 5659 5663 5667 5672 5678
5671 5669 5668 5666 5664 5662 5661 5659 5658 5655 5653 5650 5648 5645 5642 5640 5637 5635 5632 5628 5625 5622 5619 5616 5613 5610 5607 5605 5602 5599 5596 5593 5589 5585 5581 5577 5574 5572 5570 5568 5567 5565 5563 5562 5560 5559 5557 5556 5557 5558 5559 5559 5561 5563 5566 5568 5570 5573 5575 5576 5578 5580 5583 5586 5588 5590 5595 5599 5602 5604 5607 5611 5616 5621 5626 5631 5636 5640 5644 5648 5652 5657 5661 5665 5670 5675
5669 5668 5666 5665 5663 5661 5659 5658 5656 5653 5651 5649 5646 5644 5641 5639 5637 5634 5631 5628 5624 5621 5618 5615 5612 5610 5607 5604 5601 5599 5596 5593 5590 5586 5582 5577 5574 5572 5570 5568 5567 5566 5565 5563 5562 5561 5560 5560 5560 5561 5561 5562 5563 5565 5568 5570 5572 5574 5576 5578 5580 5583 5586 5587 5587 5589 5593 5597 5600 5603 5604 5607 5614 5621 5627 5632 5636 5640 5643 5646 5651 5655 5659 5664 5668 5672
5667 5666 5664 5663 5661 5660 5658 5656 5654 5652 5649 5647 5645 5643 5640 5638 5636 5633 5630 5627 5624 5621 5618 5615 5612 5609 5606 5604 5601 5598 5595 5593 5589 5586 5581 5577 5574 5573 5571 5569 5568 5567 5566 5565 5564 5564 5563 5562 5562 5563 5563 5564 5566 5568 5570 5572 5574 5576 5577 5579 5582 5584 5587 5588 5588 5590 5591 5593 5596 5599 5601 5605 5612 5620 5627 5632 5636 5640 5643 5646 5650 5653 5657 5661 5665 5668
5665 5663 5662 5661 5659 5658 5656 5655 5653 5651 5649 5647 5645 5642 5640 5637 5635 5633 5630 5627 5624 5621 5618 5615 5612 5609 5606 5603 5601 5598 5595 5593 5589 5586 5582 5578 5574 5572 5571 5570 5568 5567 5567 5566 5565 5565 5565 5565 5564 5564 5565 5566 5567 5569 5571 5573 5575 5577 5579 5581 5583 5585 5587 5589 5590 5591 5592 5592 5593 5596 5599 5604 5610 5615 5620 5625 5629 5633 5638 5643 5647 5651 5655 5658 5661 5664
5664 5662 5661 5660 5658 5657 5655 5653 5652 5651 5649 5646 5643 5641 5639 5637 5635 5633 5631 5628 5624 5621 5618 5615 5612 5609 5606 5603 5600 5598 5595 5592 5589 5586 5583 5579 5575 5573 5572 5570 5569 5568 5567 5567 5566 5566 5567 5567 5567 5566 5566 5567 5568 5570 5572 5574 5576 5578 5580 5582 5584 5585 5587 5589 5590 5591 5593 5594 5595 5597 5599 5603 5607 5611 5615 5618 5621 5625 5630 5635 5641 5647 5651 5653 5656 5659
5663 5661 5660 5658 5657 5656 5654 5653 5651 5649 5647 5645 5642 5640 5639 5637 5636 5633 5631 5628 5625 5622 5619 5615 5612 5610 5607 5604 5601 5598 5595 5592 5590 5587 5584 5580 5576 5574 5572 5571 5570 5569 5568 5568 5567 5567 5567 5567 5567 5567 5567 5568 5568 5570 5571 5574 5576 5577 5579 5582 5584 5586 5588 5590 5591 5591 5593 5595 5597 5599 5600 5603 5607 5611 5613 5615 5618 5622 5626 5630 5635 5639 5643 5647 5651 5656
5661 5660 5658 5657 5656 5655 5653 5651 5650 5648 5646 5644 5642 5641 5639 5638 5635 5633 5630 5628 5625 5622 5619 5616 5613 5610 5607 5604 5601 5598 5595 5593 5590 5587 5585 5581 5578 5575 5573 5572 5571 5569 5568 5568 5568 5567 5567 5567 5567 5568 5568 5569 5570 5570 5572 5573 5575 5578 5579 5581 5583 5586 5588 5589 5591 5592 5593 5595 5598 5600 5601 5604 5607 5609 5612 5615 5618 5622 5625 5628 5632 5634 5638 5642 5647 5652
5660 5658 5657 5656 5655 5653 5652 5650 5649 5648 5647 5645 5643 5641 5639 5637 5635 5633 5630 5627 5625 5622 5620 5617 5614 5611 5608 5605 5602 5599 5596 5593 5590 5588 5585 5583 5579 5576 5574 5572 5571 5570 5569 5568 5567 5567 5567 5567 5567 5568 5568 5569 5570 5571 5572 5573 5575 5577 5579 5581 5582 5584 5586 5588 5590 5592 5593 5595 5597 5599 5601 5603 5606 5608 5611 5615 5618 5621 5624 5627 5630 5633 5636 5639 5643 5646
5658 5657 5656 5654 5653 5652 5651 5649 5649 5648 5646 5645 5643 5641 5638 5636 5634 5632 5630 5627 5625 5623 5620 5618 5615 5611 5608 5606 5603 5600 5597 5594 5591 5588 5586 5583 5581 5578 5575 5573 5571 5570 5569 5568 5568 5567 5567 5567 5567 5567 5568 5569 5570 5570 5572 5573 5574 5576 5578 5580 5582 5583 5585 5587 5589 5591 5593 5595 5596 5598 5600 5603 5605 5608 5610 5613 5616 5618 5621 5623 5627 5630 5633 5636 5640 5642